Madison, SD

12:23 PM CST on November 15, 2019 (GMT -0600)
Madison Municipal

Weather History for KMDS - September, 2019

Change the Weather History Date:

Friday, September 27, 2019

  Actual Average Record
Temperature  
Mean Temperature 53 °F -  
Max Temperature 60 °F 70 °F 82 °F (2015)
Min Temperature 46 °F 42 °F 41 °F (2016)
Degree Days  
Heating Degree Days 12    
Growing Degree Days 3 (Base 50)    
Moisture  
Dew Point 52 °F    
Average Humidity 90    
Maximum Humidity 100    
Minimum Humidity 67    
Precipitation  
Precipitation 0.00 in - - ()
Sea Level Pressure  
Sea Level Pressure 29.76 in    
Wind  
Wind Speed 9 mph ()    
Max Wind Speed 15 mph    
Max Gust Speed 21 mph    
Visibility 10.0 miles    
Events Rain    
Averages and records for this station are not official NWS values.
T = Trace of Precipitation, MM = Missing Value Source: Averaged Metar Reports

Daily Weather History Graph

Daily Weather History Graph

Search for Another Location

Airport or City:

Astronomy

Sep. 27, 2019 Rise Set
Actual Time 7:21 AM CDT 7:16 PM CDT
Civil Twilight 6:52 AM CDT 7:45 PM CDT
Nautical Twilight 6:18 AM CDT 8:19 PM CDT
Astronomical Twilight 5:44 AM CDT 8:53 PM CDT
Moon 5:38 AM CDT (9/27) 7:12 PM CDT (9/27)
Length of Visible Light 12h 53m
Length of Day
11h 55m
Waning Crescent, 2% of the Moon is Illuminated
Sep 27
Waning Crescent
Sep 28
New
Oct 5
First Quarter
Oct 13
Full
Oct 21
Last Quarter

Hourly Weather History & Observations

Time (CDT) Temp. Windchill Dew Point Humidity Pressure Visibility Wind Dir Wind Speed Gust Speed Precip Events Conditions
12:15 AM 59.0 °F - 53.6 °F 82% 29.56 in 10.0 mi South 15.0 mph 19.6 mph N/A   Clear
12:35 AM 59.0 °F - 53.6 °F 82% 29.56 in 10.0 mi South 15.0 mph 20.7 mph N/A   Clear
12:40 AM 60.8 °F - 53.6 °F 77% 29.56 in 10.0 mi South 13.8 mph 18.4 mph N/A   Clear
12:55 AM 59.0 °F - 53.6 °F 82% 29.56 in 10.0 mi South 13.8 mph - N/A   Clear
1:00 AM 59.0 °F - 53.6 °F 82% 29.56 in 10.0 mi South 13.8 mph - N/A   Clear
1:15 AM 59.0 °F - 53.6 °F 82% 29.56 in 10.0 mi South 9.2 mph - N/A   Clear
1:20 AM 59.0 °F - 53.6 °F 82% 29.55 in 10.0 mi South 11.5 mph - N/A   Clear
1:35 AM 59.0 °F - 55.4 °F 88% 29.55 in 10.0 mi South 11.5 mph - N/A   Mostly Cloudy
1:40 AM 59.0 °F - 55.4 °F 88% 29.57 in 10.0 mi SSW 8.1 mph - N/A   Mostly Cloudy
1:55 AM 59.0 °F - 55.4 °F 88% 29.60 in 10.0 mi West 10.4 mph - N/A   Mostly Cloudy
2:15 AM 59.0 °F - 55.4 °F 88% 29.60 in 10.0 mi WSW 9.2 mph - N/A   Mostly Cloudy
2:20 AM 59.0 °F - 55.4 °F 88% 29.60 in 10.0 mi West 6.9 mph - N/A   Mostly Cloudy
2:35 AM 57.2 °F - 55.4 °F 94% 29.59 in 10.0 mi West 4.6 mph - N/A   Overcast
2:40 AM 57.2 °F - 55.4 °F 94% 29.59 in 10.0 mi Calm Calm - N/A   Mostly Cloudy
2:55 AM 57.2 °F - 55.4 °F 94% 29.58 in 10.0 mi South 5.8 mph - N/A   Mostly Cloudy
3:00 AM 55.4 °F - 55.4 °F 100% 29.58 in 10.0 mi SSW 5.8 mph - N/A   Mostly Cloudy
3:15 AM 57.2 °F - 57.2 °F 100% 29.58 in 10.0 mi SSW 6.9 mph - N/A   Overcast
3:40 AM 57.2 °F - 57.2 °F 100% 29.58 in 10.0 mi SSW 4.6 mph - N/A   Overcast
3:55 AM 55.4 °F - 55.4 °F 100% 29.59 in 10.0 mi Calm Calm - N/A   Overcast
4:15 AM 57.2 °F - 57.2 °F 100% 29.59 in 10.0 mi Calm Calm - N/A   Overcast
4:35 AM 57.2 °F - 57.2 °F 100% 29.60 in 10.0 mi Calm Calm - N/A   Overcast
4:40 AM 57.2 °F - 57.2 °F 100% 29.60 in 10.0 mi Calm Calm - N/A   Overcast
5:15 AM 57.2 °F - 57.2 °F 100% 29.61 in 10.0 mi WNW 5.8 mph - N/A   Overcast
5:20 AM 57.2 °F - 57.2 °F 100% 29.61 in 10.0 mi WNW 3.5 mph - N/A   Overcast
5:35 AM 57.2 °F - 57.2 °F 100% 29.61 in 10.0 mi WNW 5.8 mph - N/A   Overcast
5:55 AM 57.2 °F - 57.2 °F 100% 29.61 in 10.0 mi WNW 5.8 mph - N/A   Overcast
6:00 AM 57.2 °F - 57.2 °F 100% 29.62 in 10.0 mi WNW 8.1 mph - N/A   Overcast
6:15 AM 57.2 °F - 57.2 °F 100% 29.62 in 10.0 mi WNW 8.1 mph - N/A   Overcast
6:20 AM 57.2 °F - 57.2 °F 100% 29.63 in 10.0 mi NW 8.1 mph - N/A   Overcast
6:35 AM 57.2 °F - 57.2 °F 100% 29.63 in 10.0 mi NW 10.4 mph - N/A   Overcast
6:40 AM 57.2 °F - 57.2 °F 100% 29.64 in 10.0 mi NW 10.4 mph - N/A   Overcast
6:55 AM 57.2 °F - 57.2 °F 100% 29.64 in 10.0 mi NNW 8.1 mph - N/A   Overcast
7:00 AM 57.2 °F - 57.2 °F 100% 29.64 in 10.0 mi NNW 10.4 mph - N/A   Mostly Cloudy
7:15 AM 57.2 °F - 57.2 °F 100% 29.66 in 10.0 mi NNW 12.7 mph 16.1 mph N/A Rain Light Rain
7:20 AM 57.2 °F - 57.2 °F 100% 29.66 in 10.0 mi NNW 11.5 mph 16.1 mph N/A   Partly Cloudy
7:35 AM 55.4 °F - 55.4 °F 100% 29.67 in 10.0 mi NNW 12.7 mph - N/A   Mostly Cloudy
7:40 AM 55.4 °F - 55.4 °F 100% 29.67 in 10.0 mi NNW 10.4 mph - N/A   Mostly Cloudy
7:55 AM 55.4 °F - 55.4 °F 100% 29.68 in 10.0 mi NNW 9.2 mph - N/A   Scattered Clouds
8:00 AM 55.4 °F - 55.4 °F 100% 29.68 in 10.0 mi NNW 8.1 mph - N/A   Partly Cloudy
8:15 AM 55.4 °F - 55.4 °F 100% 29.69 in 10.0 mi NNW 9.2 mph - N/A   Clear
8:20 AM 55.4 °F - 55.4 °F 100% 29.70 in 10.0 mi NNW 10.4 mph - N/A   Clear
8:35 AM 55.4 °F - 55.4 °F 100% 29.70 in 10.0 mi NNW 6.9 mph - N/A   Clear
8:55 AM 55.4 °F - 55.4 °F 100% 29.70 in 10.0 mi NNW 8.1 mph - N/A   Clear
9:00 AM 55.4 °F - 55.4 °F 100% 29.71 in 10.0 mi NNW 6.9 mph - N/A   Clear
9:15 AM 55.4 °F - 55.4 °F 100% 29.72 in 10.0 mi NNW 8.1 mph - N/A   Clear
9:20 AM 55.4 °F - 55.4 °F 100% 29.72 in 10.0 mi NNW 8.1 mph - N/A   Clear
9:35 AM 57.2 °F - 55.4 °F 94% 29.72 in 10.0 mi NNW 8.1 mph - N/A   Clear
9:55 AM 55.4 °F - 55.4 °F 100% 29.72 in 10.0 mi NNW 8.1 mph - N/A   Clear
10:00 AM 55.4 °F - 55.4 °F 100% 29.72 in 10.0 mi NNW 10.4 mph - N/A   Clear
10:15 AM 57.2 °F - 55.4 °F 94% 29.73 in 10.0 mi NNW 11.5 mph - N/A   Clear
12:35 PM 59.0 °F - 50.0 °F 72% 29.77 in 10.0 mi NNW 11.5 mph - N/A   Clear
12:40 PM 59.0 °F - 50.0 °F 72% 29.77 in 10.0 mi North 10.4 mph - N/A   Partly Cloudy
12:55 PM 59.0 °F - 48.2 °F 67% 29.78 in 10.0 mi NNW 13.8 mph 17.3 mph N/A   Partly Cloudy
1:15 PM 57.2 °F - 50.0 °F 77% 29.77 in 10.0 mi North 12.7 mph - N/A   Clear
1:35 PM 57.2 °F - 50.0 °F 77% 29.78 in 10.0 mi North 11.5 mph - N/A   Clear
1:40 PM 57.2 °F - 51.8 °F 82% 29.78 in 10.0 mi North 11.5 mph - N/A   Clear
1:55 PM 57.2 °F - 48.2 °F 72% 29.80 in 10.0 mi North 12.7 mph - N/A   Clear
2:15 PM 57.2 °F - 50.0 °F 77% 29.80 in 10.0 mi NNW 10.4 mph - N/A   Partly Cloudy
2:20 PM 57.2 °F - 50.0 °F 77% 29.80 in 10.0 mi NNW 10.4 mph - N/A   Partly Cloudy
2:35 PM 57.2 °F - 50.0 °F 77% 29.80 in 10.0 mi NNW 11.5 mph - N/A   Partly Cloudy
2:40 PM 57.2 °F - 50.0 °F 77% 29.81 in 10.0 mi NNW 10.4 mph - N/A   Partly Cloudy
2:55 PM 57.2 °F - 50.0 °F 77% 29.81 in 10.0 mi NNW 10.4 mph - N/A   Clear
3:20 PM 57.2 °F - 50.0 °F 77% 29.81 in 10.0 mi NNW 11.5 mph - N/A   Clear
3:35 PM 59.0 °F - 50.0 °F 72% 29.82 in 10.0 mi North 10.4 mph - N/A   Scattered Clouds
3:55 PM 57.2 °F - 50.0 °F 77% 29.81 in 10.0 mi North 10.4 mph - N/A   Scattered Clouds
4:00 PM 57.2 °F - 50.0 °F 77% 29.81 in 10.0 mi NNW 11.5 mph - N/A   Scattered Clouds
4:15 PM 57.2 °F - 50.0 °F 77% 29.82 in 10.0 mi North 12.7 mph - N/A   Partly Cloudy
4:20 PM 57.2 °F - 50.0 °F 77% 29.82 in 10.0 mi North 11.5 mph - N/A   Partly Cloudy
4:35 PM 57.2 °F - 50.0 °F 77% 29.83 in 10.0 mi NNW 11.5 mph - N/A   Scattered Clouds
4:40 PM 57.2 °F - 50.0 °F 77% 29.84 in 10.0 mi North 13.8 mph - N/A   Mostly Cloudy
4:55 PM 57.2 °F - 50.0 °F 77% 29.84 in 10.0 mi NNW 13.8 mph 19.6 mph N/A   Mostly Cloudy
5:15 PM 55.4 °F - 50.0 °F 82% 29.84 in 10.0 mi North 12.7 mph - N/A   Scattered Clouds
5:20 PM 55.4 °F - 50.0 °F 82% 29.84 in 10.0 mi North 12.7 mph - N/A   Scattered Clouds
5:35 PM 55.4 °F - 50.0 °F 82% 29.86 in 10.0 mi North 11.5 mph - N/A   Clear
5:40 PM 55.4 °F - 48.2 °F 77% 29.86 in 10.0 mi North 11.5 mph - N/A   Clear
5:55 PM 55.4 °F - 48.2 °F 77% 29.86 in 10.0 mi NNW 12.7 mph - N/A   Partly Cloudy
6:15 PM 55.4 °F - 48.2 °F 77% 29.88 in 10.0 mi NNW 10.4 mph - N/A   Mostly Cloudy
6:20 PM 55.4 °F - 48.2 °F 77% 29.88 in 10.0 mi NNW 11.5 mph - N/A   Overcast
6:35 PM 53.6 °F - 48.2 °F 82% 29.89 in 10.0 mi North 12.7 mph - N/A   Mostly Cloudy
6:55 PM 53.6 °F - 48.2 °F 82% 29.91 in 10.0 mi North 10.4 mph - N/A   Scattered Clouds
7:15 PM 53.6 °F - 48.2 °F 82% 29.92 in 10.0 mi North 10.4 mph - N/A   Clear
7:20 PM 53.6 °F - 48.2 °F 82% 29.92 in 10.0 mi North 10.4 mph - N/A   Partly Cloudy
7:35 PM 51.8 °F - 48.2 °F 88% 29.93 in 10.0 mi North 8.1 mph - N/A   Mostly Cloudy
7:40 PM 51.8 °F - 48.2 °F 88% 29.93 in 10.0 mi North 11.5 mph - N/A   Mostly Cloudy
7:55 PM 51.8 °F - 48.2 °F 88% 29.94 in 10.0 mi NNE 6.9 mph - N/A   Mostly Cloudy
8:15 PM 50.0 °F - 50.0 °F 100% 29.95 in 10.0 mi North 10.4 mph - N/A   Mostly Cloudy
8:20 PM 50.0 °F - 48.2 °F 94% 29.95 in 10.0 mi North 11.5 mph - N/A   Mostly Cloudy
8:35 PM 50.0 °F - 48.2 °F 94% 29.95 in 10.0 mi North 11.5 mph - N/A   Mostly Cloudy
8:40 PM 50.0 °F - 48.2 °F 94% 29.95 in 10.0 mi North 11.5 mph - N/A   Scattered Clouds
8:55 PM 50.0 °F - 48.2 °F 94% 29.96 in 10.0 mi North 9.2 mph - N/A   Scattered Clouds
9:15 PM 50.0 °F - 48.2 °F 94% 29.96 in 10.0 mi NNE 10.4 mph - N/A   Partly Cloudy
9:20 PM 50.0 °F - 48.2 °F 94% 29.97 in 10.0 mi NNE 9.2 mph - N/A   Partly Cloudy
9:35 PM 48.2 °F - 48.2 °F 100% 29.97 in 10.0 mi NNE 6.9 mph - N/A   Clear
9:55 PM 48.2 °F - 48.2 °F 100% 29.97 in 10.0 mi NNE 9.2 mph - N/A   Clear
10:00 PM 48.2 °F - 48.2 °F 100% 29.97 in 10.0 mi NNE 9.2 mph - N/A   Clear
10:15 PM 48.2 °F - 48.2 °F 100% 29.98 in 10.0 mi NE 9.2 mph - N/A   Mostly Cloudy
10:35 PM 48.2 °F - 48.2 °F 100% 29.98 in 10.0 mi NNE 9.2 mph - N/A   Overcast
10:55 PM 48.2 °F - 48.2 °F 100% 29.98 in 10.0 mi NNE 8.1 mph - N/A   Mostly Cloudy
11:00 PM 48.2 °F - 48.2 °F 100% 29.99 in 10.0 mi NNE 6.9 mph - N/A   Mostly Cloudy
11:15 PM 48.2 °F - 48.2 °F 100% 30.00 in 10.0 mi North 6.9 mph - N/A   Partly Cloudy
11:20 PM 46.4 °F 42.4 °F 46.4 °F 100% 30.01 in 10.0 mi North 8.1 mph - N/A   Partly Cloudy
11:35 PM 46.4 °F 42.4 °F 46.4 °F 100% 30.01 in 10.0 mi NNE 8.1 mph - N/A   Scattered Clouds
11:40 PM 46.4 °F 42.4 °F 46.4 °F 100% 30.02 in 10.0 mi North 8.1 mph - N/A   Mostly Cloudy
11:55 PM 46.4 °F 42.4 °F 46.4 °F 100% 30.02 in 10.0 mi North 8.1 mph - N/A   Mostly Cloudy